Overview Statistics Trail Chart Weather Telemetry Raw packets
 

This is the latest recevied weather packets stored in our database for station/object KI5QCM-13. If no packets are shown the sender has not sent any weather packets the latest 10 day(s).

<< 6 7 8 9 10 11 12 >>
Time Temp. Humidity Pressure Rain* Wind** Luminosity Snow
1788324694 24.44° C 77% 1014.2 hPa 0 mm - 0 W/m² -
1788324028 25° C 75% 1014.2 hPa 0 mm - 0 W/m² -
1788323478 25° C 76% 1014.2 hPa 0 mm - 0 W/m² -
1788322822 25.56° C 73% 1014.3 hPa 0 mm - 0 W/m² -
1788322235 25° C 74% 1014.2 hPa 0 mm - 0 W/m² -
1788321654 25° C 73% 1014.2 hPa 0 mm - 0 W/m² -
1788321030 25° C 73% 1014.1 hPa 0 mm - 0 W/m² -
1788320454 25° C 73% 1014.1 hPa 0 mm - 0 W/m² -
1788319862 25° C 73% 1014.1 hPa 0 mm - 0 W/m² -
1788319270 25.56° C 72% 1014 hPa 0 mm - 0 W/m² -
1788318630 25.56° C 70% 1013.9 hPa 0 mm - 0 W/m² -
1788318054 26.11° C 68% 1013.7 hPa 0 mm - 0 W/m² -
1788317478 26.11° C 68% 1013.6 hPa 0 mm - 0 W/m² -
1788316822 26.67° C 67% 1013.4 hPa 0 mm - 0 W/m² -
1788316246 27.22° C 65% 1013.2 hPa 0 mm - 0 W/m² -
1788315670 27.78° C 63% 1013.1 hPa 0 mm - 0 W/m² -
1788315030 27.78° C 62% 1012.9 hPa 0 mm - 0 W/m² -
1788314438 27.78° C 61% 1012.9 hPa 0 mm - 0 W/m² -
1788313862 28.33° C 59% 1012.8 hPa 0 mm - 0 W/m² -
1788313222 28.89° C 58% 1012.7 hPa 0 mm - 0 W/m² -
1788312646 30° C 55% 1012.6 hPa 0 mm - 0 W/m² -
1788312054 30.56° C 53% 1012.6 hPa 0 mm - 0 W/m² -
1788311478 31.11° C 51% 1012.7 hPa 0 mm - 0 W/m² -
1788310838 32.22° C 49% 1012.7 hPa 0 mm - 0 W/m² -
1788310246 32.78° C 47% 1012.7 hPa 0 mm - 3 W/m² -

* Rain latest hour (hover to see other rain measurements)
** Current wind speed in m/s (hover to see current wind gust speed)